CW9254 Weather Reports


Display with metric or nautical units.
time (UTC)temp
F
wind
direction
speed
MPH
gust
MPH
rain 1hr
in
rain 24hr
in
rain mn
in
humidity
%
barometer
mb
20260504033002 67 78 5.0 15.0 0.00 0.01 0.00 58 1008.2
20260504032503 67 59 4.0 17.0 0.00 0.01 0.00 58 1008.2
20260504032002 67 77 5.0 17.0 0.00 0.01 0.00 58 1008.2
20260504031503 67 78 4.0 17.0 0.00 0.01 0.00 58 1008.2
20260504031003 67 68 6.0 18.0 0.00 0.01 0.00 57 1008.2
20260504030503 67 59 7.0 18.0 0.00 0.01 0.00 57 1008.3
20260504030015 66 39 5.0 20.0 0.00 0.01 0.00 58 1008.5
20260504025503 66 43 7.0 20.0 0.00 0.01 0.00 57 1008.5
20260504025002 66 346 7.0 16.0 0.00 0.01 0.00 57 1008.6
20260504024505 66 36 7.0 14.0 0.00 0.01 0.00 57 1008.5
20260504024002 66 17 4.0 16.0 0.00 0.01 0.00 57 1008.7
20260504023506 66 328 6.0 16.0 0.00 0.01 0.00 57 1008.7
20260504023002 66 359 8.0 17.0 0.00 0.01 0.00 57 1008.8
20260504022502 66 62 7.0 17.0 0.00 0.01 0.00 56 1008.9
20260504022003 66 35 4.0 17.0 0.00 0.01 0.00 58 1009.0
20260504021503 65 71 5.0 18.0 0.00 0.01 0.00 58 1009.0
20260504021002 65 359 6.0 16.0 0.00 0.01 0.00 59 1009.1
20260504020505 65 50 5.0 16.0 0.00 0.01 0.00 60 1009.2
20260504020005 64 17 4.0 18.0 0.00 0.01 0.00 61 1009.2
20260504015502 64 63 6.0 18.0 0.00 0.01 0.00 60 1009.3
20260504015002 64 23 5.0 24.0 0.00 0.01 0.00 61 1009.6
20260504014507 64 54 8.0 24.0 0.00 0.01 0.00 60 1009.6
20260504014005 63 46 6.0 16.0 0.00 0.01 0.00 61 1009.6
20260504013503 63 47 6.0 16.0 0.00 0.01 0.00 61 1009.8
20260504013002 63 359 7.0 16.0 0.00 0.01 0.00 60 1009.9
20260504012503 64 60 6.0 16.0 0.00 0.01 0.00 61 1009.8
20260504012002 64 26 4.0 13.0 0.00 0.01 0.00 62 1009.7
20260504011502 64 8 4.0 15.0 0.00 0.01 0.00 63 1009.7
20260504011004 64 18 6.0 15.0 0.00 0.01 0.00 62 1009.8
20260504010502 64 23 3.0 12.0 0.00 0.01 0.00 63 1009.7
20260504010005 64 42 3.0 14.0 0.00 0.01 0.00 63 1009.8
20260504005503 63 83 5.0 14.0 0.00 0.09 0.00 63 1009.8
20260504005003 63 86 3.0 12.0 0.00 0.09 0.00 64 1009.7
20260504004507 63 64 5.0 11.0 0.00 0.09 0.00 64 1009.8
20260504004002 63 29 3.0 10.0 0.00 0.09 0.00 65 1009.8
20260504003504 63 62 3.0 10.0 0.00 0.09 0.00 65 1009.9
20260504003008 62 32 4.0 10.0 0.00 0.09 0.00 66 1009.9
20260504002502 62 16 3.0 10.0 0.00 0.09 0.00 66 1010.0
20260504002102 62 70 4.0 12.0 0.00 0.09 0.00 66 1009.9
20260504001502 62 47 5.0 15.0 0.00 0.09 0.00 66 1010.0
20260504001002 62 44 6.0 14.0 0.00 0.09 0.00 67 1009.9
20260504000502 61 31 5.0 12.0 0.00 0.09 0.00 68 1009.9
20260504000004 61 66 3.0 11.0 0.00 0.09 0.00 70 1009.9
20260503235503 61 44 3.0 11.0 0.00 0.24 0.00 71 1010.0
20260503235005 61 45 4.0 11.0 0.00 0.24 0.00 71 1010.0
20260503234505 60 50 2.0 9.0 0.00 0.24 0.00 72 1010.1
20260503234002 60 21 2.0 10.0 0.00 0.24 0.00 73 1010.2
20260503233503 60 54 4.0 11.0 0.00 0.24 0.00 72 1010.2
20260503233003 60 46 4.0 11.0 0.00 0.24 0.00 73 1010.3
20260503232502 59 359 3.0 9.0 0.00 0.24 0.00 73 1010.2
20260503232003 59 67 4.0 12.0 0.00 0.24 0.00 73 1010.2
20260503231502 59 36 4.0 14.0 0.00 0.24 0.00 73 1010.1
20260503231002 59 69 4.0 13.0 0.00 0.24 0.00 74 1009.9
20260503230502 59 47 4.0 13.0 0.00 0.24 0.00 74 1009.8
20260503230005 58 87 3.0 9.0 0.00 0.24 0.00 75 1009.9
20260503225501 58 61 4.0 10.0 0.00 0.24 0.00 76 1010.0
20260503225001 57 60 3.0 10.0 0.00 0.24 0.00 77 1010.2
20260503224501 57 74 2.0 6.0 0.00 0.24 0.00 78 1010.1
20260503224002 57 65 3.0 8.0 0.00 0.24 0.00 78 1010.2
20260503223501 57 69 2.0 9.0 0.00 0.24 0.00 77 1010.1
20260503223002 57 66 2.0 9.0 0.00 0.24 0.00 78 1010.1
20260503222501 56 85 3.0 9.0 0.00 0.24 0.00 78 1010.1
20260503222001 56 87 2.0 9.0 0.00 0.24 0.00 78 1010.2
20260503221503 56 88 2.0 10.0 0.00 0.24 0.00 79 1010.2
20260503221001 56 359 3.0 10.0 0.00 0.24 0.00 79 1010.1
20260503220501 55 52 3.0 8.0 0.00 0.24 0.00 79 1010.1
20260503220004 55 93 3.0 8.0 0.00 0.24 0.00 80 1010.1
20260503215500 55 359 3.0 11.0 0.00 0.24 0.00 80 1010.2
20260503215001 55 63 3.0 11.0 0.00 0.24 0.00 80 1010.1
20260503214501 55 36 2.0 6.0 0.00 0.24 0.00 81 1010.1
20260503214001 54 73 2.0 5.0 0.00 0.24 0.00 82 1010.0
20260503213501 54 82 2.0 6.0 0.00 0.24 0.00 82 1009.9
20260503213001 54 59 2.0 6.0 0.00 0.24 0.00 82 1010.0
20260503212501 54 63 2.0 5.0 0.00 0.24 0.00 83 1009.9
20260503212001 54 359 2.0 5.0 0.00 0.24 0.00 83 1009.9
20260503211502 54 81 2.0 5.0 0.00 0.24 0.00 83 1009.8
20260503211001 54 67 2.0 5.0 0.00 0.24 0.00 83 1009.8
20260503210501 54 85 2.0 5.0 0.00 0.24 0.00 83 1009.8
20260503210003 54 88 2.0 6.0 0.00 0.24 0.00 84 1009.8
20260503205501 54 73 2.0 6.0 0.00 0.24 0.00 84 1009.7
20260503205001 54 100 2.0 6.0 0.00 0.24 0.00 85 1009.6
20260503204501 54 83 2.0 5.0 0.00 0.24 0.00 85 1009.6
20260503204001 54 80 2.0 5.0 0.00 0.24 0.00 86 1009.6
20260503203503 54 91 2.0 6.0 0.00 0.24 0.00 86 1009.6
20260503203001 54 81 2.0 6.0 0.00 0.24 0.00 86 1009.6
20260503202501 54 89 2.0 6.0 0.00 0.24 0.00 86 1009.8
20260503202001 54 102 2.0 6.0 0.00 0.24 0.00 86 1009.8
20260503201501 54 81 2.0 6.0 0.00 0.24 0.00 86 1009.9
20260503201005 54 81 2.0 5.0 0.00 0.24 0.00 86 1009.7
20260503200501 54 81 2.0 6.0 0.00 0.24 0.00 86 1009.7
20260503200004 54 98 2.0 4.0 0.00 0.24 0.00 86 1009.7
20260503195500 54 102 2.0 4.0 0.00 0.24 0.00 87 1009.6
20260503195001 54 89 2.0 4.0 0.00 0.24 0.00 86 1009.6
20260503194501 54 359 2.0 8.0 0.00 0.24 0.00 86 1009.6
20260503194001 54 73 2.0 6.0 0.00 0.24 0.00 86 1009.6
20260503193501 54 85 2.0 5.0 0.00 0.24 0.00 87 1009.7
20260503193000 54 68 2.0 5.0 0.00 0.24 0.00 87 1009.6
20260503192501 54 77 2.0 6.0 0.00 0.24 0.00 86 1009.7
20260503192003 54 95 2.0 6.0 0.00 0.24 0.00 86 1009.7
20260503191501 54 65 2.0 6.0 0.00 0.24 0.00 86 1009.8
20260503191003 54 77 2.0 6.0 0.00 0.24 0.00 86 1009.8
20260503190500 54 67 2.0 6.0 0.00 0.24 0.00 86 1009.9
20260503190004 54 66 3.0 6.0 0.00 0.24 0.00 86 1009.8
20260503185501 54 89 2.0 5.0 0.00 0.24 0.00 86 1009.8
20260503185003 54 92 2.0 4.0 0.00 0.24 0.00 85 1009.8
20260503184503 54 82 2.0 6.0 0.00 0.24 0.00 85 1009.9
20260503184002 54 91 2.0 6.0 0.00 0.24 0.00 85 1010.1
20260503183501 54 80 2.0 6.0 0.00 0.24 0.00 85 1010.0
20260503183001 54 67 2.0 6.0 0.00 0.24 0.00 85 1010.1
20260503182502 54 93 2.0 6.0 0.00 0.24 0.00 85 1010.1
20260503182004 54 89 2.0 5.0 0.00 0.24 0.00 85 1010.1
20260503181502 54 85 2.0 5.0 0.00 0.24 0.00 85 1010.0
20260503181001 54 74 2.0 6.0 0.00 0.24 0.00 85 1010.0
20260503180500 54 64 2.0 6.0 0.00 0.24 0.00 85 1010.0
20260503180012 54 87 2.0 5.0 0.00 0.24 0.00 85 1010.1
20260503175500 54 66 2.0 5.0 0.00 0.24 0.00 86 1010.1
20260503175003 54 93 2.0 6.0 0.00 0.24 0.00 86 1010.1
20260503174501 54 67 2.0 5.0 0.00 0.24 0.00 86 1010.2
20260503174001 54 70 2.0 6.0 0.00 0.24 0.00 86 1010.3
20260503173501 54 90 2.0 6.0 0.00 0.24 0.00 86 1010.3
20260503173001 54 75 2.0 6.0 0.00 0.24 0.00 86 1010.4
20260503172500 54 83 2.0 6.0 0.00 0.24 0.00 86 1010.4
20260503172001 54 87 2.0 4.0 0.00 0.24 0.00 87 1010.5
20260503171501 54 83 1.0 4.0 0.00 0.24 0.00 87 1010.5
20260503171001 54 59 1.0 8.0 0.00 0.24 0.00 87 1010.5
20260503170501 54 93 2.0 8.0 0.00 0.24 0.00 87 1010.5
20260503151002 55 86 2.0 5.0 0.00 0.24 0.00 88 1010.7
20260503150501 55 93 2.0 5.0 0.00 0.24 0.00 88 1010.8
20260503131002 57 88 1.0 4.0 0.00 0.24 0.00 85 1011.5
20260503130502 57 70 1.0 3.0 0.00 0.24 0.00 85 1011.5
20260503110503 58 81 1.0 3.0 0.00 0.24 0.24 81 1011.3
20260503090504 59 66 0.0 3.0 0.00 0.24 0.24 76 1011.0
20260503081502 60 72 1.0 2.0 0.00 0.24 0.24 73 1010.2
20260503081003 60 56 1.0 2.0 0.00 0.24 0.24 73 1010.2
20260503080503 60 54 0.0 2.0 0.00 0.24 0.24 72 1010.2
20260503072503 62 31 0.0 3.0 0.00 0.24 0.24 66 1010.1
20260503072006 63 33 1.0 3.0 0.00 0.24 0.24 65 1010.1
20260503071508 63 8 2.0 3.0 0.00 0.24 0.24 65 1010.0
20260503071003 63 43 2.0 5.0 0.00 0.24 0.24 64 1009.9
20260503070502 63 54 2.0 5.0 0.00 0.24 0.24 63 1009.8
20260503055002 68 354 3.0 8.0 0.00 0.24 0.24 50 1009.3
20260503054503 68 328 3.0 9.0 0.00 0.24 0.24 52 1009.3
20260503054002 67 24 3.0 9.0 0.00 0.24 0.24 51 1009.3
20260503053502 67 8 1.0 6.0 0.00 0.24 0.24 59 1009.3
20260503053002 66 33 3.0 8.0 0.00 0.24 0.24 58 1009.2
20260503052504 66 37 3.0 6.0 0.00 0.24 0.24 60 1009.2
20260503052003 66 18 2.0 8.0 0.00 0.24 0.24 61 1009.3
20260503051502 65 39 2.0 8.0 0.00 0.24 0.24 62 1009.3
20260503051004 65 37 2.0 5.0 0.00 0.24 0.24 64 1009.4
20260503050502 65 54 2.0 6.0 0.00 0.24 0.24 66 1009.4
20260503050005 65 359 2.0 6.0 0.00 0.24 0.24 66 1009.2
20260503045502 65 56 3.0 7.0 0.00 0.24 0.24 68 1009.2
20260503045006 65 75 2.0 7.0 0.00 0.24 0.24 70 1009.1
20260503044503 65 48 2.0 9.0 0.00 0.24 0.24 70 1009.2
20260503044002 65 40 3.0 9.0 0.00 0.24 0.24 70 1009.1
20260503043502 65 16 3.0 10.0 0.00 0.24 0.24 73 1009.1
20260503043002 65 31 3.0 10.0 0.00 0.24 0.24 75 1009.0
20260503042502 65 359 3.0 10.0 0.00 0.24 0.24 76 1009.0
20260503042002 65 19 3.0 10.0 0.00 0.24 0.24 77 1009.0
20260503041503 65 37 2.0 6.0 0.00 0.24 0.24 78 1009.0
20260503041005 65 43 2.0 6.0 0.00 0.24 0.24 79 1009.0
20260503040510 65 9 3.0 6.0 0.00 0.24 0.24 79 1008.9
20260503040005 65 359 1.0 6.0 0.01 0.24 0.24 80 1009.0
20260503035508 64 349 2.0 6.0 0.01 0.24 0.24 81 1009.1
20260503035002 64 9 2.0 8.0 0.01 0.24 0.24 82 1009.2
20260503034505 64 348 2.0 8.0 0.01 0.24 0.24 82 1009.3
20260503034005 64 36 3.0 9.0 0.01 0.24 0.24 82 1009.3
20260503033504 64 32 3.0 9.0 0.01 0.24 0.24 83 1009.1